Regional Weather Roundup
Issued by NWS Cleveland, OH

Home | Current Version | Previous Version | Graphics & Text | Print | Product List | Glossary On
Versions: 1 2 3 4 5 6 7 8 9 10 11 12 13 14 15 16 17 18 19 20 21 22 23 24 25 26 27 28 29 30 31 32 33 34 35 36 37 38 39 40 41 42 43 44 45 46 47 48 49 50
857
ASUS41 KCLE 121002
RWRCLE
OHIO REGIONAL WEATHER ROUNDUP
NATIONAL WEATHER SERVICE CLEVELAND, OH
500 AM EST FRI FEB 12 2016

NOTE: "FAIR" INDICATES FEW OR NO CLOUDS BELOW 12,000 FEET WITH NO
SIGNIFICANT WEATHER AND/OR OBSTRUCTIONS TO VISIBILITY.

OHZ001>008-015>018-024>027-034-035-043-044-121100-
   NORTHWEST OHIO

CITY           SKY/WX    TMP DP  RH WIND       PRES   REMARKS
DEFIANCE       CLOUDY    14   9  80 SW5       30.17F WCI   6
FINDLAY        MOCLDY     9   3  77 S6        30.16F WCI  -1
TOLEDO EXPRESS CLOUDY    12   7  80 SW6       30.16F WCI   3
TOLEDO EXEC    CLOUDY    14   7  73 SW8       30.18F WCI   3
LIMA           CLEAR     12   6  77 S7        30.16F WCI   1
$$

OHZ009>014-019>023-028>033-038-089-121100-
   NORTHEAST OHIO

CITY           SKY/WX    TMP DP  RH WIND       PRES   REMARKS
CLE-HOPKINS    MOCLDY    14   6  70 SW8       30.19F WCI   3
CLE-LAKEFRONT  CLOUDY    19  10  68 SW14      30.16F WCI   6
CUY CO. ARPT   NOT AVBL
LORAIN-ELYRIA  CLEAR      9   5  84 SW7       30.17F WCI  -2
ASHTABULA      MOCLDY    10   2  69 SW10      30.14F WCI  -4
AKRON-CANTON   CLOUDY    13   5  70 SW6       30.15F WCI   4
WOOSTER        PTCLDY     9   4  80 SW7       30.16F WCI  -2
MANSFIELD      PTCLDY    10   4  76 SW5       30.14F WCI   2
YOUNGSTOWN     CLOUDY     7   1  76 SW6       30.15S WCI  -3
$$

OHZ042-051>053-060>062-070>072-077>081-121100-
  SOUTHWEST OHIO

CITY           SKY/WX    TMP DP  RH WIND       PRES   REMARKS
CINC-COVINGTON CLOUDY    20   9  62 S5        30.18F WCI  13
CINC-LUNKEN    CLOUDY    17  13  84 NE3       30.23F
HAMILTON       CLOUDY    12  10  92 CALM      30.22F
DAYTON         CLOUDY    14   9  80 S5        30.18F WCI   6
WRIGHT-PAT AFB CLOUDY    11   6  79 SW2       30.19F
DAYTON GENERAL CLOUDY    11   5  77 CALM      30.18F
WILMINGTON     CLOUDY     6   2  83 CALM      30.18F
$$

OHZ036-037-039>041-045>050-054>059-063>069-073>076-082>088-121100-
  CENTRAL AND SOUTHEAST OHIO

CITY           SKY/WX    TMP DP  RH WIND       PRES   REMARKS
COLUMBUS       CLOUDY     8   3  80 CALM      30.21F
OSU AIRPORT    CLOUDY    11   6  81 CALM      30.19F
BOLTON FIELD   NOT AVBL
RICKENBACK AFB NOT AVBL
NEWARK         CLOUDY     3  -3  76 CALM      30.20F
MARION         CLEAR     10   3  73 SW6       30.18F WCI   0
LANCASTER      CLOUDY     6   1  80 S5        30.21F WCI  -3
ZANESVILLE     CLOUDY     2  -4  76 CALM      30.21F
NEW PHILLY     CLEAR      6   2  83 CALM      30.21F
$$




USA.gov is the U.S. government's official web portal to all federal, state and local government web resources and services.